Location: *
(48.8489°N, 2.3218°E)
Time: 19:42:57
(UTC+00:00)

Cosmos 2074 Rocket - Pass Details

Date: 23 August 2019
Orbit: 967 x 986 km, 82.9° (Epoch: 16 September)

Event Time Altitude Azimuth Distance (km) Brightness Sun altitude
Rises 21:12:47 0° 352° (N) 3,707 8.0 -20.2°
Reaches altitude 10° 21:15:21 10° 355° (N) 2,754 7.1 -20.5°
Maximum altitude 21:21:39 67° 78° (ENE) 1,063 4.0 -21.2°
Enters shadow 21:23:55 40° 146° (SE) 1,406 4.3 -21.4°
